Regional Weather Roundup
Issued by NWS Green Bay, WI

Home | Current Version | Previous Version | Graphics & Text | Print | Product List | Glossary Off
Versions: 1 2 3 4 5 6 7 8 9 10 11 12 13 14 15 16 17 18 19 20 21 22 23 24 25 26 27 28 29 30 31 32 33 34 35 36 37 38 39 40 41 42 43 44 45 46 47 48 49 50

000
ASUS43 KGRB 021159
RWRGRB

NORTH-CENTRAL AND NORTHEAST WISCONSIN REGIONAL WEATHER ROUNDUP
NATIONAL WEATHER SERVICE GREEN BAY WI
700 AM CDT THU OCT 02 2014

WIZ005-009-010>012-018-019-021300-
NORTH CENTRAL WISCONSIN

CITY           SKY/WX    TMP DP  RH WIND       PRES   REMARKS
IRONWOOD       NOT AVBL
MANITOWISH WTR NOT AVBL
ARBOR VITAE    NOT AVBL
EAGLE RIVER    NOT AVBL
LAND O LAKES   NOT AVBL
RHINELANDER    FOG       50  50 100 CALM      29.87S VSB 1/4
PHILLIPS       NOT AVBL
ANTIGO         NOT AVBL
TOMAHAWK       NOT AVBL
MERRILL        NOT AVBL
$$

WIZ013-073-021300-
NORTHEAST WISCONSIN

CITY           SKY/WX    TMP DP  RH WIND       PRES   REMARKS
IRON MOUNTAIN  FOG       53  52  96 SE3       29.87S VSB 1/4
MARINETTE      NOT AVBL
$$

WIZ017-030-035>037-045-021300-
CENTRAL WISCONSIN

CITY           SKY/WX    TMP DP  RH WIND       PRES   REMARKS
MEDFORD        NOT AVBL
WAUSAU         CLOUDY    54  52  93 E6        29.84S
MOSINEE        CLOUDY    54  54 100 NE5       29.86S FOG
MARSHFIELD     CLEAR     53  51  93 E5        29.84S FOG
WISC RAPIDS    CLOUDY    57  55  93 CALM      29.86R
STEVENS POINT  NOT AVBL
WAUPACA        NOT AVBL
SHAWANO        NOT AVBL
CLINTONVILLE   NOT AVBL
$$

WIZ038-039-048-051-021300-
FOX VALLEY

CITY           SKY/WX    TMP DP  RH WIND       PRES   REMARKS
NWS GREEN BAY  CLOUDY    58  57  97 CALM      29.86F
APPLETON       CLOUDY    57  55  94 CALM      29.86S FOG
OSHKOSH        CLOUDY    59  57  93 CALM      29.85R FOG
FOND DU LAC    CLOUDY    58  56  93 CALM      29.85R
$$

WIZ022-050-052-021300-
EAST CENTRAL WISCONSIN

CITY           SKY/WX    TMP DP  RH WIND       PRES   REMARKS
STURGEON BAY   NOT AVBL
MANITOWOC      NOT AVBL
SHEBOYGAN      NOT AVBL
$$

LMZ563-521-522-541>543-021300-
LAKESHORE

STATION/POSITION TIME  TEMP    WIND        PRES    VSBY  WAVE
                       AIR SEA DIR/SP/G                  HT/PER
                 (UTC) (F)     (DEG/KT/KT) (MB)    (MI)  (FT/S)
SHEBOYGAN LKSHOR 1100   58 56  170/ 14/ 15 1011.2S
KEWAUNEE LKSHORE 1100   56     170/  5/  5 1010.7F
NORTHPORT PIER   1100   57     150/  9/ 11 1012.2S
N MID LAKE BUOY  1100   56 58  140/ 10/ 12 1012.8S         2/ 5
SISTER BAY LKSHO 1100          140/  8/ 15   N/A
CHAMBERS ISLAND  1100   56     120/  5/  8 1011.9S
MENOMINEE LKSHOR 1100   57     140/ 11/ 12 1011.8F
$$


USA.gov is the U.S. government's official web portal to all federal, state and local government web resources and services.